Theta_e
306 304 305 304 305 303 303 302 303 303 303 303 304 304 305 305 303 305 305 305 305 305 306 307 306 304 306 307 307 303 303 301 301 305 305 317 318 324 324 324 321 314 315 316 315 313 315
305 305 305 304 303 303 303 303 302 303 303 303 304 303 304 304 304 304 305 304 305 306 307 308 307 305 306 308 304 303 303 301 302 303 305 314 317 322 322 319 318 313 314 315 313 314 316
305 305 304 304 303 303 303 302 302 302 303 303 303 304 303 303 304 303 304 305 305 305 307 307 306 306 306 306 305 304 303 301 301 303 306 311 318 319 318 315 313 313 314 313 312 314 316
305 304 304 303 303 303 302 302 302 302 303 303 303 303 303 303 304 303 304 305 304 302 307 306 306 306 305 305 305 304 302 302 303 304 306 307 310 319 313 312 311 312 312 313 312 315 316
305 304 303 303 303 303 302 302 302 302 302 302 303 303 303 303 303 303 304 303 300 300 303 306 306 305 305 305 304 304 302 303 303 305 305 307 314 318 311 314 310 310 312 311 312 314 317
304 303 303 303 302 302 302 302 302 302 302 302 302 302 303 303 303 303 302 301 301 301 302 306 304 304 303 304 303 304 305 303 304 307 314 316 316 312 309 312 313 310 311 311 311 312 316
303 303 303 302 302 302 302 302 302 302 302 302 302 302 303 303 303 303 300 299 297 298 299 302 302 303 303 303 304 306 305 304 304 308 322 319 316 315 310 310 309 309 311 309 311 314 316
303 303 302 302 302 302 301 301 301 302 301 301 301 302 303 303 302 302 299 299 300 300 301 302 303 303 302 303 305 306 303 303 304 317 318 317 315 310 309 309 308 309 310 310 313 314 314
303 302 302 302 301 302 302 302 301 301 301 301 301 302 298 300 301 299 297 298 300 300 300 302 303 302 302 303 307 306 304 304 304 319 317 315 312 312 311 311 310 308 309 310 314 313 312
303 302 301 301 301 301 301 301 301 301 301 301 301 298 296 296 299 298 297 296 300 300 299 299 301 302 302 305 307 305 304 303 306 317 315 314 313 312 312 312 310 308 307 313 314 312 313
303 303 302 301 301 301 301 301 301 301 301 300 298 296 296 297 297 297 296 297 300 301 293 299 300 301 302 306 306 306 304 306 307 315 316 319 314 313 313 312 310 310 312 313 311 309 309
302 302 302 301 301 301 301 301 301 301 301 298 296 297 296 295 296 296 296 299 300 293 295 298 299 299 303 304 308 308 307 306 306 314 317 316 312 312 312 311 311 310 312 312 312 310 313
302 302 302 301 300 300 300 300 300 300 300 295 295 297 296 295 296 297 298 298 292 294 298 296 299 300 303 303 306 309 309 307 308 319 320 316 317 314 312 312 311 311 311 314 316 312 311
302 302 301 301 300 300 300 300 299 299 295 296 298 298 296 297 299 300 299 292 292 298 299 298 299 301 302 302 305 306 306 307 305 307 319 321 319 315 312 312 312 310 309 310 308 313 310
302 301 301 301 299 299 300 299 297 295 295 296 298 298 295 298 300 300 294 295 298 299 298 299 298 298 298 299 303 307 305 305 305 305 313 324 321 315 311 310 311 311 310 310 310 306 307
301 302 301 301 299 299 299 299 297 293 295 298 298 298 295 298 298 297 294 298 298 296 298 298 297 299 293 298 300 298 302 303 302 303 305 315 320 317 312 310 310 311 310 311 311 312 309
301 301 301 301 298 295 296 298 298 294 295 297 298 291 295 298 296 292 290 295 296 295 296 296 296 294 294 295 296 299 299 303 303 304 306 310 315 318 312 311 310 311 312 312 311 313 314
301 301 301 301 299 295 291 292 296 295 296 296 296 291 295 298 293 287 288 295 295 295 294 296 295 296 295 296 296 293 297 300 302 302 308 308 314 316 313 312 311 310 311 310 310 312 313
300 300 301 300 300 296 292 290 292 294 297 297 293 292 295 294 291 287 293 294 294 294 294 294 293 295 295 297 296 298 300 298 301 300 306 307 317 319 317 314 312 314 310 309 310 310 311
300 300 299 300 300 298 296 291 291 293 296 297 288 288 287 288 289 288 292 293 293 293 293 292 290 293 295 296 296 297 296 297 299 299 304 306 315 317 315 314 312 314 312 310 309 311 311
299 299 299 299 299 299 296 294 290 292 294 294 287 284 283 286 287 286 286 284 288 289 292 291 289 290 294 293 294 295 295 295 298 296 299 302 313 313 313 314 312 312 313 311 311 310 311
299 299 299 298 298 299 297 296 291 291 292 294 289 288 286 279 278 284 286 282 287 288 289 288 286 288 290 288 290 290 292 294 295 295 296 298 310 308 312 314 312 306 302 309 309 308 307
295 298 298 298 298 298 297 297 294 291 291 292 292 293 291 289 283 282 282 286 288 292 289 292 290 285 289 289 288 289 291 292 293 294 295 295 299 306 315 314 313 310 296 297 300 293 296
292 294 295 298 298 298 297 296 296 294 291 291 292 292 289 286 287 283 286 290 291 292 286 292 289 286 289 287 289 293 295 295 295 295 295 295 296 303 312 315 320 297 292 293 292 290 289
291 292 294 295 297 297 297 296 296 293 293 289 290 292 288 286 287 290 286 288 289 289 289 292 290 287 286 288 297 295 299 294 299 298 297 297 298 299 305 304 301 299 292 292 293 293 287
291 292 293 293 295 296 297 296 294 294 291 292 289 291 290 287 287 288 286 283 282 279 283 289 289 286 288 294 290 290 291 290 293 296 295 298 300 300 304 307 305 294 289 288 291 302 285
290 291 292 292 292 295 297 297 294 293 291 291 290 288 291 284 288 287 284 284 281 279 282 282 284 284 287 283 283 287 292 290 292 292 291 292 291 299 302 299 293 290 287 289 301 297 283
290 290 291 292 291 293 296 297 296 293 291 290 292 289 288 282 288 289 290 285 283 279 279 280 282 281 281 282 283 284 287 287 288 281 285 287 291 295 290 300 301 287 286 294 287 282 281
290 290 291 291 291 292 295 296 297 296 293 290 291 289 287 289 287 290 290 290 290 287 280 276 278 274 287 285 282 284 289 281 282 288 281 285 285 288 292 294 287 282 283 281 281 280 279
Wind_Speed
23 24 24 24 24 23 22 23 23 22 23 24 24 24 25 26 27 25 24 26 28 22 16 13 5 5 6 4 2 2 11 18 15 7 12 14 21 18 23 18 19 4 10 6 2 6 2
24 25 25 24 24 24 24 23 23 23 24 25 25 25 25 26 27 26 25 26 24 16 15 12 5 4 4 4 10 2 9 20 4 7 12 13 16 19 20 15 18 8 10 7 5 4 2
25 25 26 25 26 25 24 24 23 24 24 25 25 25 26 27 27 27 25 24 22 15 15 7 2 3 4 4 5 3 9 7 6 4 8 16 12 10 10 9 9 8 5 3 4 5 4
25 26 26 27 27 26 25 24 24 24 25 25 26 25 26 27 28 28 24 25 16 8 11 3 1 1 1 4 4 4 5 2 9 8 15 15 19 11 8 8 6 9 6 8 5 8 2
26 27 28 28 27 26 26 25 25 25 25 25 25 26 26 27 29 27 27 22 9 9 10 3 2 2 3 3 7 1 6 6 9 13 15 13 10 7 6 20 6 5 9 6 4 7 5
27 28 28 27 27 27 27 27 26 26 26 27 27 27 26 25 26 24 28 5 5 10 2 5 5 4 6 8 11 2 2 7 4 5 11 10 5 6 4 16 15 11 12 12 9 7 5
28 28 28 28 28 28 28 28 28 28 28 28 28 27 26 24 23 18 25 5 5 6 8 2 2 1 6 13 5 7 4 1 4 7 14 9 17 17 9 12 9 12 8 8 4 6 6
29 29 29 29 29 30 30 30 31 30 30 29 27 26 25 23 17 13 17 5 3 2 6 6 1 2 8 8 2 3 5 3 4 4 24 10 15 8 12 11 10 11 11 4 4 8 6
30 30 31 30 30 31 32 32 32 31 30 28 25 22 25 22 5 8 18 9 3 4 3 5 1 3 6 2 2 4 5 4 4 23 25 21 12 9 16 8 9 9 16 8 9 5 5
30 32 32 31 31 32 33 34 34 33 30 26 20 19 22 22 3 18 4 15 3 3 3 15 11 7 9 2 5 7 4 5 3 21 14 8 8 13 12 6 5 9 9 11 14 6 6
30 32 33 33 33 33 35 35 34 33 29 23 17 19 23 13 9 3 13 9 4 1 6 18 8 12 15 7 2 9 10 6 8 7 6 2 12 13 8 6 5 4 14 14 8 7 6
31 33 34 35 34 34 36 37 36 33 29 21 14 16 24 15 8 14 14 5 2 6 3 9 8 14 15 13 10 3 4 5 3 4 2 13 5 4 3 4 2 1 10 8 5 5 1
31 33 35 37 36 35 37 38 38 34 29 18 10 14 25 13 11 19 8 2 6 6 8 11 10 13 8 11 9 7 9 15 5 5 10 18 8 4 11 7 8 12 10 3 3 2 5
32 34 36 37 37 36 38 40 40 35 26 15 9 10 30 23 30 16 4 6 12 8 4 7 8 10 8 11 9 13 3 7 17 12 7 5 7 3 5 4 5 10 5 5 6 5 4
32 34 36 38 38 38 40 42 44 32 22 14 7 7 31 30 22 16 5 11 5 6 7 10 8 6 8 8 5 7 10 10 7 8 4 4 4 3 6 6 7 7 3 5 6 2 4
31 34 37 39 40 40 42 43 44 32 19 15 6 5 29 27 22 14 6 10 5 10 8 5 7 6 4 8 7 6 10 8 10 5 6 4 7 2 3 3 4 2 2 2 3 5 5
30 33 36 39 44 44 46 44 43 36 17 16 6 4 31 17 15 6 5 5 5 12 9 7 4 3 4 3 4 5 6 3 10 9 8 7 1 4 6 6 4 3 2 2 2 4 4
29 32 34 38 44 45 47 50 46 37 28 13 5 4 31 9 5 3 4 4 7 6 8 4 5 3 3 5 7 4 3 2 7 7 5 5 3 4 3 2 3 3 4 5 4 2 1
27 30 33 36 42 45 47 47 46 36 23 5 3 1 16 17 5 4 5 5 5 10 11 7 8 6 5 6 4 5 5 5 7 9 4 6 2 5 3 6 5 5 6 4 2 3 4
26 28 31 34 38 42 42 47 45 34 21 5 3 4 4 5 3 4 3 5 6 6 5 5 6 5 5 6 4 6 7 5 4 10 7 2 1 2 4 2 5 5 6 3 5 2 2
24 26 28 31 35 38 39 43 45 34 28 5 4 1 4 4 5 4 4 2 6 7 6 10 6 11 5 6 8 8 7 7 3 11 6 3 5 4 6 6 4 5 3 6 6 3 4
20 23 25 28 31 34 36 37 41 40 18 12 3 3 3 1 2 5 7 4 5 5 3 6 3 8 5 4 3 4 7 4 3 8 6 7 1 4 4 9 4 6 7 5 2 3 7
17 19 22 25 28 30 34 33 34 37 27 9 8 3 3 4 4 4 2 3 4 6 4 2 2 2 4 2 5 8 7 7 4 5 4 4 4 3 3 7 2 4 4 5 3 6 2
14 16 18 20 23 26 29 29 28 29 28 11 5 2 3 2 3 2 2 2 3 5 4 4 3 3 4 7 7 3 3 5 5 6 4 2 2 1 2 2 4 2 3 4 9 7 7
12 14 15 17 19 21 24 27 25 24 19 22 13 3 2 1 2 1 4 2 5 5 3 2 2 2 6 4 0 3 2 5 3 3 4 2 1 2 2 2 1 5 1 2 1 2 5
9 11 12 14 16 18 21 23 24 21 19 10 18 6 3 3 3 3 1 2 0 3 7 3 3 9 5 1 3 2 1 4 5 7 5 1 3 2 3 3 7 1 3 1 1 2 3
8 9 11 12 13 15 16 18 22 20 18 11 8 11 3 3 2 3 2 2 2 1 1 4 6 7 4 2 3 2 2 3 1 2 3 4 3 2 2 1 4 2 2 2 4 3 3
8 7 8 11 11 12 12 14 16 20 17 13 4 11 4 2 3 2 2 2 2 2 3 4 3 4 4 4 3 2 1 3 2 3 2 3 2 2 1 1 5 4 3 4 2 3 3
11 9 7 9 10 11 10 12 13 16 17 10 3 7 3 3 3 2 3 4 3 5 4 3 5 3 2 1 2 2 2 2 3 2 3 3 4 3 5 2 1 2 3 2 4 3 2
Wind_Direction
11 9 4 2 359 359 354 352 349 346 345 345 344 342 343 343 341 340 335 334 331 322 314 312 277 248 238 230 189 153 347 348 316 318 269 234 175 189 189 175 174 172 201 237 303 128 170
10 7 4 2 359 358 353 352 347 345 344 344 343 341 340 340 340 337 334 335 335 332 323 302 257 190 230 281 149 144 350 345 0 300 293 210 184 201 188 162 170 177 191 213 178 163 99
9 7 5 1 360 357 354 350 346 344 343 342 342 340 339 337 337 337 333 335 329 325 332 318 214 177 258 294 195 147 13 336 309 263 295 220 223 182 161 130 168 147 130 179 233 166 163
7 6 3 3 0 356 353 349 346 344 342 340 340 338 338 337 338 338 335 334 322 336 340 42 127 243 335 222 214 239 348 67 272 249 241 264 272 191 147 146 97 130 130 166 249 149 234
8 5 5 2 359 356 353 350 348 344 340 339 338 336 336 337 338 342 338 331 305 319 301 322 299 100 41 168 322 62 346 340 288 261 272 262 227 186 140 151 104 150 167 152 177 175 121
8 6 3 1 359 357 354 350 347 343 342 338 337 335 334 337 340 344 341 329 330 5 87 246 355 69 3 333 314 330 37 41 334 263 175 193 177 147 109 160 173 170 161 168 153 200 76
9 5 2 2 359 357 354 350 347 345 342 338 336 334 332 337 340 349 358 12 15 353 20 96 225 87 332 309 308 15 333 352 247 224 143 176 154 172 176 157 120 119 115 101 104 148 107
9 5 3 1 359 357 354 351 349 346 342 338 338 336 334 337 342 359 37 65 75 245 316 281 276 132 324 285 335 45 333 181 4 106 122 140 161 149 119 113 131 141 146 137 81 130 97
9 6 4 2 359 357 354 352 350 348 344 341 340 342 343 339 13 28 66 38 344 326 252 320 294 18 318 309 61 33 343 51 347 136 143 149 148 133 140 113 120 182 165 160 144 126 45
9 8 5 2 0 358 355 353 352 350 347 345 348 2 0 356 66 348 68 351 347 317 62 347 354 347 336 93 64 34 45 66 266 120 119 95 148 130 129 110 106 155 162 137 134 108 165
10 8 6 4 2 359 356 355 354 352 350 351 2 13 8 360 322 30 326 341 318 242 57 324 340 322 323 27 307 25 28 14 35 95 87 160 160 139 116 140 143 175 126 148 133 119 114
11 8 7 5 4 1 358 356 356 354 351 350 4 11 12 10 2 341 342 341 298 43 357 339 321 342 359 8 23 86 357 56 23 73 79 157 146 80 88 79 24 20 98 65 57 88 87
11 9 8 7 5 2 360 358 357 355 354 356 10 19 9 14 332 342 340 32 46 54 338 329 334 330 353 353 351 37 36 51 35 126 120 129 133 358 103 65 348 124 118 103 80 35 204
10 10 9 7 6 4 1 0 358 357 3 10 16 11 8 4 358 352 69 52 61 337 353 316 326 327 13 4 10 35 47 39 26 21 117 110 141 203 156 175 173 148 129 135 160 155 196
11 11 10 8 6 5 3 2 3 6 6 7 7 17 5 5 11 28 67 57 34 344 335 330 342 12 349 345 333 35 40 32 44 11 30 103 101 298 192 151 173 206 169 169 107 94 95
14 12 10 8 7 6 5 4 4 9 5 358 1 355 5 0 30 46 60 88 64 22 347 7 27 6 333 331 27 42 18 3 351 347 306 10 117 285 90 37 301 140 140 74 24 151 175
14 13 12 9 9 12 10 6 4 7 6 8 22 50 353 5 45 44 71 65 53 18 12 35 332 341 292 342 46 44 352 50 353 330 329 3 61 180 153 195 155 82 172 354 124 135 144
16 14 13 11 8 12 18 13 5 10 10 25 44 45 351 22 53 40 48 25 13 353 5 19 5 360 313 357 26 55 107 192 21 319 22 12 347 75 200 200 41 225 166 180 136 247 119
18 16 14 12 11 9 16 17 12 10 12 1 72 359 12 42 61 9 12 5 59 5 12 359 4 15 336 4 79 58 47 29 37 25 18 342 36 103 37 336 318 222 222 182 111 98 208
18 18 17 14 13 11 12 18 17 12 15 68 72 27 349 38 57 88 19 12 1 9 20 29 24 353 352 13 353 26 8 356 356 11 4 308 290 352 161 224 142 188 203 174 146 130 195
17 17 18 17 16 13 15 15 21 17 20 59 37 241 186 342 355 25 59 24 359 7 5 4 17 14 356 14 4 8 1 332 17 359 349 52 32 351 295 269 253 162 134 167 192 199 163
15 15 17 19 17 16 15 16 19 23 22 63 89 79 11 178 315 46 6 347 14 321 59 339 47 330 24 74 123 290 354 1 351 323 13 347 83 343 291 341 202 92 20 14 11 50 108
13 14 15 17 19 19 19 18 19 26 37 61 23 50 102 307 14 62 275 281 301 338 304 16 324 54 358 321 283 266 245 264 254 313 345 31 354 5 301 337 355 52 17 335 77 46 12
9 11 15 16 20 20 21 23 21 27 37 61 31 34 66 294 80 178 278 276 281 303 213 308 23 99 257 315 285 235 242 259 267 267 220 65 352 331 282 327 210 76 47 47 102 64 50
0 4 7 14 17 22 22 23 24 24 28 43 35 54 83 353 201 341 335 280 326 347 340 258 305 214 297 297 324 341 342 3 305 209 193 167 106 333 148 65 7 206 6 87 121 130 60
344 352 358 9 11 19 23 20 25 19 21 30 36 48 89 114 286 197 210 156 270 316 348 301 350 333 355 285 63 102 158 228 309 334 18 138 99 85 325 196 197 136 154 291 225 271 93
321 337 341 354 7 15 20 18 23 21 16 16 29 23 86 103 258 106 134 173 155 69 261 311 335 349 3 38 65 77 294 187 301 279 330 340 7 165 254 249 289 164 169 210 137 188 120
293 310 325 332 351 4 13 16 11 22 18 8 351 18 26 139 277 161 143 119 20 72 118 269 29 342 15 52 89 273 90 270 47 228 186 173 143 217 48 178 260 155 100 206 111 109 99
273 282 300 313 334 345 3 6 358 4 11 8 320 348 360 159 231 247 222 189 198 180 146 344 168 185 59 56 11 27 317 18 166 276 343 305 186 201 201 221 174 161 144 124 91 109 50